Theta_e
292 291 290 289 289 288 287 289 287 291 288 290 292 291 292 293 292 291 290 290 291 291 291 290 288 287 286 285 285 285 284 284 285 285 285 283 281 279 278 277 276 276 275 275
287 289 287 286 289 289 288 289 290 291 289 295 294 294 291 291 290 289 290 291 291 291 291 289 288 287 286 285 284 285 284 284 285 284 282 280 278 277 276 275 275 274 273 273
284 289 284 280 285 288 289 291 291 287 291 290 289 290 291 292 291 291 291 291 290 290 290 289 288 288 286 285 285 284 283 283 283 282 280 279 277 275 275 274 274 273 272 272
282 281 276 285 284 290 288 288 288 286 287 289 290 290 291 293 292 291 290 289 289 289 289 289 288 287 287 286 284 282 283 282 281 280 279 277 275 274 274 273 272 272 272 271
278 279 284 278 280 284 285 286 287 288 286 284 283 285 286 287 288 291 289 290 290 291 290 288 287 287 285 282 282 282 281 281 280 279 277 275 273 273 273 272 271 271 271 270
277 278 278 285 281 281 286 281 286 288 285 282 282 283 288 284 286 285 286 287 286 287 286 286 285 283 282 282 281 281 282 281 280 278 275 273 273 272 272 271 271 270 270 269
279 279 281 285 280 281 279 284 284 287 286 282 282 287 285 284 283 285 285 285 284 284 283 283 281 281 281 281 280 282 282 279 277 275 273 273 272 271 270 269 269 267 267 268
279 278 277 281 278 280 285 281 283 282 282 282 282 281 282 282 282 282 282 282 283 282 281 282 281 280 280 279 282 279 278 276 274 272 272 270 268 268 267 267 266 266 266 267
283 282 279 282 282 283 284 285 282 282 282 283 281 280 281 281 281 281 282 281 281 281 280 280 280 280 280 281 277 275 274 272 270 269 269 268 267 267 267 267 267 268 268 268
281 278 278 280 281 282 282 282 282 283 282 282 281 281 280 281 281 280 281 280 280 278 278 279 279 278 280 276 274 272 272 270 268 267 267 266 268 268 268 268 268 268 268 268
275 276 278 280 281 282 282 282 281 281 281 282 281 280 280 280 280 281 281 279 278 278 278 279 279 278 277 274 272 272 271 269 269 268 267 268 268 269 268 269 269 268 267 267
277 280 281 281 283 283 282 281 282 281 279 280 281 281 280 280 280 280 279 278 277 277 277 278 276 275 271 270 270 271 270 269 269 269 268 268 268 268 270 271 271 272 273 273
280 282 281 282 283 283 282 282 282 281 281 280 280 280 279 279 279 278 277 276 276 276 275 274 272 271 267 267 268 268 271 270 269 267 268 267 267 266 266 268 269 270 271 272
282 280 279 280 281 281 281 282 280 278 279 279 279 277 278 276 274 275 274 273 271 270 268 268 267 266 265 265 266 265 267 265 268 268 267 267 266 266 265 264 264 265 266 267
280 281 282 281 280 279 278 277 276 277 277 275 274 275 274 273 273 272 267 266 266 264 263 264 263 261 262 262 262 263 264 265 265 265 265 264 264 263 263 263 262 262 262 263
280 278 276 277 279 277 276 274 276 277 276 275 273 272 272 271 267 262 261 262 267 266 260 260 261 259 259 259 260 261 261 260 261 263 263 262 262 262 261 261 261 261 261 261
275 274 271 274 276 276 276 278 278 278 275 273 273 268 264 261 259 258 256 256 259 258 258 260 258 255 255 257 259 262 262 261 259 261 261 261 261 261 261 261 260 260 260 261
275 278 278 279 278 277 275 275 275 273 271 270 266 263 261 261 263 257 255 254 255 255 256 255 254 254 254 255 256 258 259 259 259 258 259 259 259 259 259 259 259 259 259 260
265 268 270 271 268 270 269 268 266 264 263 263 262 261 260 259 258 254 253 255 257 258 255 253 258 255 256 254 255 257 258 257 257 257 257 256 256 257 257 257 258 258 258 258
261 262 262 261 260 261 260 259 259 258 258 258 256 256 254 252 252 252 254 256 256 256 253 254 254 255 254 254 254 258 258 257 257 257 257 257 256 257 257 256 255 257 257 257
256 257 257 257 255 255 255 256 257 256 255 256 257 254 253 250 252 253 256 258 255 253 254 254 255 257 257 256 256 257 257 257 257 257 257 256 256 256 256 256 256 256 257 257
254 254 254 254 253 252 252 254 254 254 254 254 253 252 252 252 251 253 252 257 256 254 255 257 258 256 257 256 258 258 258 257 257 257 256 256 256 256 256 257 257 258 258 258
252 253 253 252 252 251 251 252 252 253 253 253 254 255 257 257 257 258 257 255 256 255 257 258 257 258 260 260 259 258 258 257 257 257 257 257 257 257 257 257 258 258 257 257
251 251 251 251 250 253 252 252 252 252 252 253 253 254 257 257 256 256 256 255 254 255 257 257 258 261 258 258 258 257 257 257 257 257 257 256 257 257 257 257 257 257 257 256
250 251 251 252 253 252 252 252 253 254 254 255 255 255 255 256 257 256 255 255 255 256 257 256 259 259 257 257 256 256 257 257 257 257 257 257 257 257 257 257 256 256 255 255
252 252 253 252 254 255 255 256 255 255 256 255 255 255 254 254 255 255 255 255 255 255 256 256 256 256 256 256 256 256 256 257 257 257 256 256 256 256 256 256 255 255 255 254
254 254 255 254 254 255 255 255 256 255 254 254 255 255 254 254 254 254 254 255 255 255 255 256 256 256 256 256 256 256 256 256 256 256 256 256 256 256 255 255 255 255 254 253
Wind_Speed
26 14 8 6 18 22 26 31 18 19 18 16 17 16 16 16 14 17 19 20 20 17 16 15 15 15 14 14 15 14 14 14 14 12 10 9 8 6 5 4 3 2 2 1
19 16 12 11 15 27 29 27 25 14 15 8 14 7 10 14 16 18 19 18 16 15 14 15 16 15 14 15 14 14 15 15 12 10 9 8 7 7 6 5 5 4 3 2
20 20 3 8 32 20 21 21 23 22 14 7 7 12 13 14 16 18 17 17 16 14 13 12 14 13 15 14 13 13 12 9 9 9 9 9 8 7 7 6 4 4 4 4
3 7 12 7 1 16 17 11 11 1 4 10 6 5 4 8 13 12 14 13 10 9 10 9 9 12 11 11 11 11 11 10 9 10 10 10 9 8 6 5 5 5 5 5
6 9 8 1 5 9 13 11 10 12 5 6 5 5 4 6 6 10 11 9 7 8 7 8 10 10 9 9 9 10 11 12 11 11 10 11 9 8 6 5 6 6 5 5
4 7 12 1 6 3 3 6 7 10 9 9 7 6 7 10 8 7 7 6 7 7 6 7 7 8 9 8 9 11 12 12 11 11 11 10 9 8 5 5 6 5 5 5
7 6 5 2 5 3 8 4 4 8 9 13 8 4 4 10 7 5 5 6 4 6 7 8 7 8 8 7 10 11 7 8 9 10 9 9 8 6 6 6 5 5 6 6
4 5 11 7 6 8 3 3 4 5 8 11 5 7 8 8 7 7 6 5 7 6 8 6 7 8 7 9 10 7 8 9 9 9 8 7 7 6 6 6 6 6 6 6
9 4 2 11 3 3 2 6 5 7 7 8 9 8 9 7 6 6 7 5 4 6 5 5 6 9 10 11 7 8 8 8 8 8 7 7 8 7 6 6 6 6 6 5
2 2 2 10 3 1 3 4 4 3 5 8 10 8 9 7 7 6 5 5 4 5 6 8 8 9 11 5 7 8 8 8 8 8 8 7 6 6 6 7 6 6 6 6
1 1 3 3 5 6 6 3 5 4 6 9 7 6 7 6 5 5 5 4 3 6 8 11 6 8 6 6 8 7 7 7 8 7 8 8 8 7 7 7 7 6 6 6
4 8 4 10 16 12 8 9 7 7 4 4 7 8 7 7 6 5 6 4 5 7 7 6 4 4 5 6 8 9 8 7 7 7 7 6 6 6 14 15 15 17 18 13
4 8 4 1 3 7 12 7 9 9 7 7 7 7 6 5 5 5 5 5 5 6 4 2 3 3 4 5 6 7 8 8 6 6 6 7 7 7 7 7 11 13 14 15
3 7 0 2 5 7 7 6 4 1 2 5 6 4 5 5 3 5 5 3 2 3 2 3 4 4 4 4 4 4 3 2 5 5 5 6 6 6 6 6 7 6 7 9
7 6 3 3 3 3 2 4 4 6 6 5 4 5 6 7 6 5 4 3 5 5 5 5 6 5 3 4 4 4 3 3 3 3 4 5 5 5 6 7 7 6 6 7
6 1 3 2 1 3 4 2 5 7 5 4 6 6 4 3 6 7 5 3 4 5 4 5 6 4 3 3 3 2 3 3 3 4 4 5 5 6 7 7 7 7 6 7
4 2 1 5 7 6 10 7 10 7 2 5 6 7 8 8 8 6 5 4 6 7 5 5 5 3 3 1 1 2 2 3 3 4 5 6 6 7 7 7 7 7 7 7
8 5 3 4 5 6 6 8 7 4 4 2 6 8 8 8 7 8 6 5 6 7 5 5 3 3 2 1 1 2 2 3 3 4 5 6 6 6 7 8 8 8 8 7
7 7 5 2 3 1 2 2 3 4 4 5 7 7 7 7 8 7 5 5 5 6 3 2 3 3 2 0 3 1 2 3 3 4 4 5 6 6 7 8 8 8 7 7
9 6 6 5 5 4 5 5 7 7 5 8 10 9 9 7 7 7 3 5 4 4 3 2 1 1 0 1 3 1 2 3 4 5 5 5 6 7 7 8 8 8 7 7
8 7 7 7 8 8 7 5 6 8 6 6 9 8 9 7 5 5 6 5 3 2 1 0 1 0 1 0 1 1 2 3 4 5 5 6 6 6 7 7 7 7 7 7
6 4 5 6 7 7 7 7 7 7 7 9 9 9 8 7 4 3 2 2 3 1 1 1 2 2 2 2 2 3 4 5 5 5 6 5 6 7 7 7 7 7 7 7
4 4 5 5 6 6 6 7 6 7 7 6 6 7 6 5 4 4 3 3 1 1 2 2 3 4 4 2 2 3 4 5 5 6 6 6 7 7 7 7 7 6 7 6
4 6 5 4 3 3 8 4 6 6 5 5 5 3 4 4 3 2 2 1 3 3 2 2 4 5 0 2 3 4 5 5 6 6 6 8 7 7 7 7 7 7 7 7
4 3 3 5 6 4 4 4 5 4 5 5 4 3 3 3 2 2 1 2 4 3 3 4 5 5 3 3 4 5 5 5 6 6 6 7 7 7 7 7 7 7 7 7
3 4 4 4 3 3 2 2 3 2 2 3 2 2 1 1 1 1 1 2 3 3 3 3 3 3 4 4 5 6 6 7 7 6 7 8 8 7 7 8 8 7 7 7
3 3 3 3 3 3 3 3 3 2 2 2 1 0 1 1 1 2 2 3 3 3 3 3 4 4 4 5 5 6 6 6 7 7 6 7 7 7 7 7 7 7 7 7
Wind_Direction
237 250 213 221 203 198 209 221 213 242 226 197 191 196 195 198 188 185 194 197 199 199 200 197 198 197 196 199 192 188 191 196 201 194 186 177 164 165 161 173 175 178 193 250
239 224 224 235 229 207 213 222 235 241 231 193 193 161 179 188 182 194 198 198 197 199 198 201 202 202 197 201 195 192 197 204 201 188 176 175 170 177 180 187 196 195 201 240
234 224 183 264 231 214 217 222 221 220 236 137 170 193 197 187 190 198 194 190 188 191 200 203 204 198 199 195 192 191 194 195 182 176 182 186 181 186 197 201 202 220 218 232
227 118 219 272 348 211 212 197 212 228 165 166 177 182 163 185 191 187 188 181 185 195 194 195 193 198 197 192 185 186 197 194 183 184 191 186 188 199 199 202 221 225 230 232
194 209 318 227 194 174 185 229 193 214 144 134 106 109 204 192 184 188 181 179 186 185 183 179 192 190 175 168 173 185 201 200 191 189 187 189 196 197 199 209 224 231 222 237
150 215 225 226 167 183 158 246 191 177 146 149 150 186 217 175 170 157 155 162 180 174 170 179 177 157 162 178 178 203 204 204 189 183 185 186 191 189 193 212 230 234 240 253
190 219 273 203 150 180 173 237 133 161 157 159 188 220 125 150 162 155 163 174 149 172 185 196 155 156 186 168 202 213 185 169 175 182 177 179 175 183 193 212 231 236 252 255
156 222 247 139 100 180 170 11 128 142 167 178 135 144 144 147 149 162 178 178 193 185 208 196 163 169 185 195 216 159 168 174 177 167 168 168 172 182 202 214 228 239 250 261
198 185 108 174 64 159 182 154 189 161 168 158 146 171 162 168 165 177 194 204 195 204 214 186 179 189 194 219 160 155 164 171 164 162 170 168 181 196 209 214 234 242 245 257
176 113 154 182 48 117 208 190 151 158 136 154 170 172 176 160 171 178 191 209 187 186 222 223 203 202 225 135 147 157 173 171 166 175 181 184 197 207 216 221 228 235 242 252
6 127 114 201 223 201 201 166 139 137 158 182 154 164 171 185 190 197 211 202 193 210 227 237 189 202 193 165 153 175 176 175 181 190 194 196 213 215 222 231 231 236 234 235
191 182 163 198 209 197 194 197 187 170 170 183 173 193 180 204 203 195 209 190 208 221 228 234 199 201 174 168 168 168 179 180 189 193 195 207 214 228 235 237 233 237 245 245
168 181 181 57 149 167 209 194 199 202 193 183 208 203 182 199 202 203 202 205 215 220 222 212 198 188 162 167 164 174 188 181 184 199 204 212 218 229 244 225 253 258 259 263
148 113 49 186 203 190 198 199 169 187 193 202 181 173 195 194 146 192 188 184 178 149 107 131 131 117 133 143 151 143 176 163 197 207 219 225 231 239 244 250 257 251 248 266
182 216 160 125 150 161 119 139 184 212 198 202 191 194 179 188 188 172 130 124 107 103 104 104 100 93 89 117 138 156 177 203 221 237 241 251 249 246 249 251 251 256 276 269
175 221 31 248 178 182 188 200 219 234 201 211 195 194 181 102 110 115 103 113 147 146 117 101 105 95 112 120 129 167 211 236 237 247 249 244 243 247 249 247 252 254 251 256
121 254 247 262 235 206 209 214 218 232 198 190 202 139 128 118 110 113 101 58 79 87 70 66 90 40 26 41 208 243 244 245 244 256 253 255 256 251 255 256 255 254 253 248
315 326 219 213 218 219 227 228 228 222 199 153 119 127 130 153 150 143 127 118 103 85 72 64 66 82 57 49 270 277 272 279 271 264 271 265 261 263 263 262 261 261 263 257
351 334 340 63 30 30 43 56 60 72 90 112 119 112 105 99 119 118 131 123 125 130 109 15 356 52 52 264 196 239 254 263 265 263 260 266 262 259 260 259 260 259 258 260
6 9 26 44 41 37 94 77 98 88 75 98 105 103 104 97 109 120 125 99 76 87 130 118 192 169 209 129 50 257 259 272 278 278 275 274 271 273 274 266 266 266 260 255
10 10 39 53 58 51 58 70 96 96 91 89 108 115 121 125 122 128 136 126 107 101 56 69 260 270 239 188 201 272 295 276 268 272 276 277 278 272 270 269 265 260 260 256
3 17 50 59 64 65 39 61 75 79 82 88 91 107 112 108 113 88 15 87 140 170 294 268 270 278 293 319 291 279 270 267 270 274 266 266 271 276 277 271 267 264 259 257
21 37 63 62 79 86 65 56 60 79 89 92 111 126 119 123 132 145 143 150 178 250 246 267 305 307 323 310 286 282 279 275 275 270 272 274 275 277 275 274 271 269 266 263
49 46 62 59 21 80 87 65 77 76 79 88 86 78 124 127 108 83 81 117 277 284 286 307 321 307 257 283 278 277 276 277 275 273 277 272 273 273 269 269 268 266 264 263
85 90 81 80 79 75 80 90 88 88 93 91 91 77 60 38 23 129 270 286 285 303 304 298 293 308 285 268 264 270 274 275 275 281 277 276 276 273 272 270 267 268 265 262
47 63 70 66 86 108 98 88 90 74 105 115 96 70 57 23 16 295 268 286 295 297 288 295 285 278 271 271 277 278 279 279 279 279 279 278 275 271 270 270 270 268 266 266
81 90 97 88 56 55 60 71 95 84 51 19 55 74 331 308 311 307 303 290 285 285 279 276 274 273 279 282 281 279 275 274 273 275 275 273 272 271 272 274 273 271 270 266